Carolina, PR

12:27 AM AST on February 24, 2017 (GMT -0400)
Luis Munoz Marin International

Weather History for TJSJ - February, 2013

Change the Weather History Date:

Wednesday, February 20, 2013

  Actual Average Record
Temperature  
Mean Temperature 79 °F 78 °F  
Max Temperature 85 °F 84 °F 91 °F (1980)
Min Temperature 73 °F 72 °F 65 °F (1959)
Degree Days  
Heating Degree Days 0 0  
Month to date heating degree days 0 0  
Since 1 July heating degree days 0 0  
Cooling Degree Days 14 13  
Month to date cooling degree days 260 260  
Year to date cooling degree days 681 651  
Growing Degree Days 28 (Base 50)    
Moisture  
Dew Point 69 °F    
Average Humidity 71    
Maximum Humidity 87    
Minimum Humidity 55    
Precipitation  
Precipitation 0.03 in 0.08 in 1.98 in (1915)
Month to date precipitation 2.28 1.78  
Year to date precipitation 4.06 5.54  
Sea Level Pressure  
Sea Level Pressure 30.02 in    
Wind  
Wind Speed 9 mph (East)    
Max Wind Speed 24 mph    
Max Gust Speed 31 mph    
Visibility 10 miles    
Events Rain    
T = Trace of Precipitation, MM = Missing Value Source: NWS Daily Summary

Daily Weather History Graph

Daily Weather History Graph

Search for Another Location

Airport or City:

Trip Planner

Search our weather history database for the weather conditions in past years. The results will help you decide how hot, cold, wet, or windy it might be!

Date:

Astronomy

Feb. 20, 2013 Rise Set
Actual Time 6:48 AM AST 6:26 PM AST
Civil Twilight 6:26 AM AST 6:49 PM AST
Nautical Twilight 6:00 AM AST 7:14 PM AST
Astronomical Twilight 5:35 AM AST 7:40 PM AST
Moon 2:08 PM AST (2/20) 2:41 AM AST (2/20)
Length of Visible Light 12h 22m
Length of Day
11h 38m
Waxing Gibbous, 75% of the Moon is Illuminated
Feb 20
Waxing Gibbous
Feb 25
Full
Mar 4
Last Quarter
Mar 11
New
Mar 19
First Quarter

Hourly Weather History & Observations

Time (AST) Temp. Heat Index Dew Point Humidity Pressure Visibility Wind Dir Wind Speed Gust Speed Precip Events Conditions
12:56 AM 75.0 °F - 70.0 °F 84% 30.07 in 10.0 mi SE 3.5 mph - 0.00 in   Mostly Cloudy
1:56 AM 75.0 °F - 69.1 °F 82% 30.05 in 10.0 mi ESE 5.8 mph - N/A   Scattered Clouds
2:56 AM 73.9 °F - 69.1 °F 85% 30.02 in 10.0 mi East 8.1 mph - 0.00 in   Scattered Clouds
3:56 AM 73.9 °F - 69.1 °F 85% 30.01 in 10.0 mi East 6.9 mph - N/A   Scattered Clouds
4:56 AM 73.9 °F - 68.0 °F 82% 30.01 in 10.0 mi East 8.1 mph - N/A   Scattered Clouds
5:56 AM 73.9 °F - 68.0 °F 82% 30.03 in 10.0 mi East 6.9 mph - 0.00 in   Mostly Cloudy
6:56 AM 73.9 °F - 66.9 °F 79% 30.05 in 10.0 mi SE 3.5 mph - N/A   Mostly Cloudy
7:56 AM 75.0 °F - 69.1 °F 82% 30.06 in 10.0 mi Calm Calm - 0.01 in   Mostly Cloudy
8:56 AM 75.0 °F - 69.1 °F 82% 30.07 in 10.0 mi Variable 4.6 mph - 0.00 in   Mostly Cloudy
9:56 AM 75.9 °F - 70.0 °F 82% 30.08 in 10.0 mi East 10.4 mph 19.6 mph 0.00 in Rain Light Rain
10:56 AM 80.1 °F 83.6 °F 71.1 °F 74% 30.07 in 10.0 mi ENE 13.8 mph - 0.01 in   Mostly Cloudy
11:56 AM 79.0 °F - 70.0 °F 74% 30.05 in 10.0 mi East 6.9 mph - 0.00 in   Mostly Cloudy
12:56 PM 82.9 °F 85.0 °F 66.0 °F 56% 30.02 in 10.0 mi East 12.7 mph - N/A   Mostly Cloudy
1:56 PM 84.0 °F 86.5 °F 66.9 °F 56% 29.99 in 10.0 mi ENE 19.6 mph 26.5 mph N/A   Scattered Clouds
2:56 PM 80.1 °F 82.9 °F 69.1 °F 69% 29.98 in 10.0 mi ENE 19.6 mph 26.5 mph N/A   Scattered Clouds
3:56 PM 82.0 °F 85.5 °F 69.1 °F 65% 29.96 in 10.0 mi East 18.4 mph 24.2 mph N/A   Scattered Clouds
4:56 PM 80.1 °F 82.9 °F 69.1 °F 69% 29.96 in 10.0 mi ENE 13.8 mph - N/A   Scattered Clouds
5:56 PM 79.0 °F - 68.0 °F 69% 29.97 in 10.0 mi East 13.8 mph 20.7 mph N/A   Scattered Clouds
6:56 PM 77.0 °F - 68.0 °F 74% 29.98 in 10.0 mi East 10.4 mph - N/A   Scattered Clouds
7:56 PM 75.9 °F - 70.0 °F 82% 30.00 in 8.0 mi East 8.1 mph - 0.00 in Rain Light Rain
8:56 PM 75.9 °F - 70.0 °F 82% 30.02 in 10.0 mi ESE 6.9 mph - 0.01 in   Scattered Clouds
9:56 PM 75.9 °F - 70.0 °F 82% 30.02 in 10.0 mi ESE 5.8 mph - N/A   Scattered Clouds
10:56 PM 75.9 °F - 70.0 °F 82% 30.02 in 10.0 mi Calm Calm - N/A   Scattered Clouds
11:56 PM 75.0 °F - 70.0 °F 84% 30.02 in 10.0 mi ESE 3.5 mph - N/A   Partly Cloudy